Regional Weather Roundup
Issued by NWS Little Rock, AR

Home | Current Version | Previous Version | Text Only | Print | Product List | Glossary On
Versions: 1 2 3 4 5 6 7 8 9 10 11 12 13 14 15 16 17 18 19 20 21 22 23 24 25 26 27 28 29 30 31 32 33 34 35 36 37 38 39 40 41 42 43 44 45 46 47 48 49 50
000
ASUS44 KLZK 240805
RWRLZK

WEATHER ROUNDUP FOR ARKANSAS
NATIONAL WEATHER SERVICE LITTLE ROCK AR
300 AM CDT WED MAY 24 2017

NOTE: "FAIR" INDICATES FEW OR NO CLOUDS BELOW 12,000 FEET WITH NO
SIGNIFICANT WEATHER AND/OR OBSTRUCTIONS TO VISIBILITY.

ARZ001-003-010-029-240900-
NORTHWEST ARKANSAS

CITY           SKY/WX    TMP DP  RH WIND       PRES   REMARKS
FAYETTEVILLE   CLEAR     50  48  93 W5        29.75F
FORT SMITH     CLEAR     56  47  71 W10       29.75F
HARRISON       MOCLDY    52  48  86 NW6       29.71F
BENTONVILLE    CLEAR     52  45  76 NW5       29.74F
ROGERS         CLEAR     49  47  93 NW6       29.74F
SILOAM SPGS    CLEAR     48  43  81 NW8       29.75F
HIGHFILL       CLEAR     51  47  86 NW7       29.75F
$$

ARZ004-005-016-240900-
NORTH CENTRAL ARKANSAS

CITY           SKY/WX    TMP DP  RH WIND       PRES   REMARKS
BATESVILLE     MOCLDY    57  55  94 CALM      29.67F
FLIPPIN        CLEAR     54  46  76 CALM      29.67S
$$

ARZ040-041-240900-
WEST CENTRAL ARKANSAS

CITY           SKY/WX    TMP DP  RH WIND       PRES   REMARKS
MENA           CLEAR     55  55 100 SW3       29.75F
MOUNT IDA      PTCLDY    57  52  83 CALM      29.70F
$$

ARZ009-017-025-026-028-240900-
NORTHEAST ARKANSAS

CITY           SKY/WX    TMP DP  RH WIND       PRES   REMARKS
JONESBORO      LGT RAIN  61  59  93 NW5       29.64F
NEWPORT        LGT RAIN  60  58  92 NW5       29.65F
WALNUT RIDGE   CLOUDY    61  54  77 NW5       29.65F
BLYTHEVILLE    LGT RAIN  60  59  96 N9        29.62F
$$

ARZ022-023-033-042-044-240900-
CENTRAL ARKANSAS

CITY           SKY/WX    TMP DP  RH WIND       PRES   REMARKS
LITTLE ROCK    CLOUDY    60  60 100 W7        29.68F
N LITTLE ROCK    N/A     59  57  94 CALM      29.67F
JACKSONVILLE   CLOUDY    60  60  99 W5        29.67F
CONWAY           N/A     61  57  88 W8        29.67F
SEARCY         CLOUDY    59  58  96 W3        29.68F
HOT SPRINGS    MOCLDY    60  55  83 W3        29.70F
RUSSELLVILLE   CLOUDY    59  55  87 W7        29.70F
CLINTON        FAIR      55  55 100 CALM      29.68F
$$

ARZ036-240900-
EAST ARKANSAS

CITY           SKY/WX    TMP DP  RH WIND       PRES   REMARKS
WEST MEMPHIS   LGT RAIN  61  61 100 N5        29.61F
$$

ARZ050-053-066-070-073-240900-
SOUTHWEST ARKANSAS

CITY           SKY/WX    TMP DP  RH WIND       PRES   REMARKS
ARKADELPHIA    FAIR      58  57  97 CALM      29.72F
CAMDEN         LGT RAIN  57  55  94 SW3       29.73F
TEXARKANA      CLEAR     57  57 100 W7        29.75F
EL DORADO      CLOUDY    57  56  96 VRB3      29.74F
DE QUEEN       CLEAR     55  54  96 CALM      29.74F
$$

ARZ056-057-069-240900-
SOUTHEAST ARKANSAS

CITY           SKY/WX    TMP DP  RH WIND       PRES   REMARKS
PINE BLUFF     LGT RAIN  60  58  92 W6        29.69F
STUTTGART      CLOUDY    61  48  63 W10       29.68S
MONTICELLO     RAIN      60  57  89 W12       29.71S

$$





USA.gov is the U.S. government's official web portal to all federal, state and local government web resources and services.